Tracking 20623 objects as of 4-Apr-2020
HD Live streaming from Space Station
objects crossing your sky now

SL-14 DEB

Track SL-14 DEB now!
10-day predictions


NORAD ID: 35525
Int'l Code: 1987-068CU
Perigee: 945.6 km
Apogee: 977.6 km
Inclination: 82.5 °
Period: 104.1 minutes
Semi major axis: 7332 km
RCS: 0.0106 m2 (small)
Launch date: August 18, 1987
Source: Commonwealth of Independent States (former USSR) (CIS)
Launch site: PLESETSK MISSILE AND SPACE COMPLEX (PKMTR)

Note: This is SATELLITE DEBRIS
aabbcc
Your satellite tracking list
Your tracking list is empty




NASA's NSSDC Master Catalog

Two Line Element Set (TLE):
1 35525U 87068CU  20094.37805765 +.00000090 +00000-0 +69158-4 0  9997
2 35525 082.5445 313.9946 0021825 107.5146 016.7538 13.82665852851164
Source of the keplerian elements: AFSPC